| time (UTC) | temp C | wind direction | speed KPH | gust KPH | rain 1hr cm | rain 24hr cm | rain mn cm | humidity % | barometer mb |
| 20260502225327 | 13 | 13 | 0.0 | 4.8 | 0.00 | 5.99 | 1.52 | 91 | 1013.3 |
| 20260502224323 | 13 | 335 | 3.2 | 4.8 | 0.00 | 5.99 | 1.52 | 91 | 1013.2 |
| 20260502223326 | 13 | 325 | 3.2 | 6.4 | 0.00 | 5.99 | 1.52 | 91 | 1013.1 |
| 20260502222339 | 13 | 335 | 3.2 | 6.4 | 0.00 | 5.99 | 1.52 | 91 | 1013.1 |
| 20260502221317 | 13 | 349 | 1.6 | 6.4 | 0.00 | 5.99 | 1.52 | 91 | 1012.9 |
| 20260502220313 | 13 | 11 | 3.2 | 8.0 | 0.00 | 5.99 | 1.52 | 91 | 1012.9 |
| 20260502215335 | 13 | 286 | 4.8 | 8.0 | 0.00 | 5.99 | 1.52 | 91 | 1012.9 |
| 20260502214315 | 13 | 330 | 1.6 | 6.4 | 0.00 | 5.99 | 1.52 | 91 | 1012.9 |
| 20260502213310 | 13 | 42 | 3.2 | 6.4 | 0.00 | 5.99 | 1.52 | 91 | 1012.6 |
| 20260502212312 | 13 | 50 | 4.8 | 9.7 | 0.00 | 5.99 | 1.52 | 91 | 1012.8 |
| 20260502211327 | 13 | 338 | 3.2 | 9.7 | 0.00 | 5.99 | 1.52 | 91 | 1012.9 |
| 20260502210331 | 13 | 19 | 3.2 | 12.9 | 0.00 | 5.99 | 1.52 | 91 | 1012.9 |
| 20260502205324 | 13 | 330 | 4.8 | 12.9 | 0.00 | 5.99 | 1.52 | 91 | 1012.9 |
| 20260502204327 | 13 | 329 | 4.8 | 9.7 | 0.00 | 5.99 | 1.52 | 91 | 1013.0 |
| 20260502203348 | 13 | 328 | 4.8 | 16.1 | 0.00 | 5.99 | 1.52 | 91 | 1012.7 |
| 20260502202321 | 13 | 342 | 4.8 | 12.9 | 0.00 | 5.99 | 1.52 | 92 | 1012.7 |
| 20260502201319 | 13 | 326 | 8.0 | 16.1 | 0.10 | 5.99 | 1.52 | 92 | 1013.0 |
| 20260502200321 | 13 | 317 | 3.2 | 12.9 | 0.10 | 5.99 | 1.52 | 93 | 1012.9 |
| 20260502195319 | 13 | 360 | 4.8 | 16.1 | 0.10 | 5.99 | 1.52 | 92 | 1012.9 |
| 20260502194313 | 13 | 330 | 6.4 | 16.1 | 0.20 | 5.99 | 1.52 | 92 | 1013.0 |
| 20260502193334 | 13 | 24 | 9.7 | 19.3 | 0.20 | 5.99 | 1.52 | 91 | 1013.1 |
| 20260502192334 | 13 | 297 | 6.4 | 12.9 | 0.30 | 5.99 | 1.52 | 93 | 1013.1 |
| 20260502191308 | 13 | 345 | 8.0 | 17.7 | 0.20 | 5.89 | 1.50 | 92 | 1013.1 |
| 20260502190322 | 13 | 20 | 4.8 | 17.7 | 0.20 | 5.89 | 1.50 | 93 | 1013.4 |
| 20260502185322 | 13 | 331 | 6.4 | 19.3 | 0.20 | 5.89 | 1.50 | 93 | 1013.4 |
| 20260502184341 | 13 | 45 | 6.4 | 14.5 | 0.20 | 5.79 | 1.47 | 92 | 1013.3 |
| 20260502183326 | 13 | 344 | 6.4 | 16.1 | 0.20 | 5.79 | 1.47 | 93 | 1013.4 |
| 20260502182323 | 13 | 40 | 3.2 | 12.9 | 0.20 | 5.69 | 1.45 | 94 | 1013.4 |
| 20260502181326 | 13 | 312 | 6.4 | 17.7 | 0.20 | 5.69 | 1.45 | 93 | 1013.1 |
| 20260502180340 | 13 | 344 | 6.4 | 17.7 | 0.20 | 5.69 | 1.45 | 93 | 1013.3 |
| 20260502170310 | 13 | 42 | 6.4 | 19.3 | 0.41 | 5.51 | 1.40 | 93 | 1013.4 |
| 20260502164326 | 13 | 330 | 6.4 | 19.3 | 0.71 | 5.51 | 1.40 | 94 | 1013.7 |
| 20260502163340 | 13 | 26 | 4.8 | 17.7 | 0.79 | 5.41 | 1.37 | 94 | 1013.6 |
| 20260502162321 | 13 | 355 | 4.8 | 14.5 | 0.79 | 5.31 | 1.35 | 94 | 1013.9 |
| 20260502161316 | 13 | 13 | 4.8 | 12.9 | 0.79 | 5.21 | 1.32 | 94 | 1014.2 |
| 20260502160336 | 13 | 333 | 6.4 | 14.5 | 0.79 | 5.11 | 1.30 | 93 | 1014.2 |
| 20260502152342 | 13 | 38 | 8.0 | 19.3 | 1.09 | 5.31 | 1.14 | 93 | 1014.2 |
| 20260502151319 | 12 | 5 | 6.4 | 14.5 | 1.30 | 5.21 | 1.12 | 94 | 1014.0 |
| 20260502150316 | 12 | 350 | 6.4 | 19.3 | 1.30 | 5.11 | 1.09 | 94 | 1013.9 |
| 20260502130343 | 12 | 326 | 6.4 | 14.5 | 0.51 | 3.61 | 0.64 | 93 | 1013.3 |
| 20260502123316 | 12 | 355 | 3.2 | 9.7 | 0.41 | 3.40 | 0.58 | 93 | 1013.3 |
| 20260502122316 | 13 | 297 | 4.8 | 9.7 | 0.41 | 3.30 | 0.56 | 93 | 1013.3 |
| 20260502121311 | 13 | 323 | 3.2 | 12.9 | 0.41 | 3.20 | 0.53 | 93 | 1013.2 |
| 20260502120333 | 13 | 302 | 3.2 | 8.0 | 0.30 | 3.10 | 0.51 | 93 | 1013.2 |
| 20260502115312 | 13 | 331 | 4.8 | 8.0 | 0.41 | 3.20 | 0.51 | 93 | 1013.0 |
| 20260502114312 | 13 | 355 | 3.2 | 9.7 | 0.51 | 3.20 | 0.51 | 93 | 1013.2 |
| 20260502113326 | 13 | 320 | 3.2 | 8.0 | 0.51 | 3.10 | 0.48 | 93 | 1013.2 |
| 20260502112328 | 13 | 300 | 1.6 | 6.4 | 0.51 | 3.00 | 0.46 | 93 | 1013.2 |
| 20260502111344 | 13 | 348 | 3.2 | 8.0 | 0.61 | 2.90 | 0.43 | 93 | 1013.2 |
| 20260502110325 | 13 | 337 | 1.6 | 4.8 | 0.89 | 2.90 | 0.43 | 93 | 1013.2 |
| 20260502105320 | 13 | 290 | 3.2 | 4.8 | 0.99 | 2.79 | 0.41 | 93 | 1013.2 |
| 20260502104323 | 13 | 299 | 4.8 | 8.0 | 1.09 | 2.69 | 0.38 | 93 | 1013.2 |
| 20260502103338 | 13 | 318 | 3.2 | 6.4 | 1.09 | 2.59 | 0.36 | 92 | 1013.2 |
| 20260502102318 | 13 | 284 | 1.6 | 6.4 | 1.09 | 2.39 | 0.30 | 92 | 1013.4 |
| 20260502101341 | 13 | 263 | 3.2 | 9.7 | 0.89 | 2.21 | 0.25 | 92 | 1013.3 |
| 20260502100311 | 13 | 289 | 3.2 | 9.7 | 0.79 | 2.01 | 0.20 | 91 | 1013.3 |
| 20260502091316 | 13 | 304 | 1.6 | 3.2 | 0.10 | 1.30 | 0.03 | 89 | 1013.3 |
| 20260502090336 | 13 | 303 | 1.6 | 3.2 | 0.00 | 1.19 | 0.00 | 88 | 1013.3 |
| 20260502071311 | 13 | 313 | 1.6 | 3.2 | 0.00 | 1.19 | 0.00 | 88 | 1012.5 |
| 20260502070334 | 13 | 288 | 1.6 | 6.4 | 0.00 | 1.19 | 0.00 | 88 | 1012.5 |
| 20260502065326 | 13 | 296 | 1.6 | 3.2 | 0.00 | 1.19 | 0.00 | 88 | 1012.5 |
| 20260502064320 | 13 | 317 | 1.6 | 4.8 | 0.00 | 1.19 | 0.00 | 88 | 1012.6 |
| 20260502063319 | 13 | 314 | 1.6 | 4.8 | 0.00 | 1.19 | 0.00 | 88 | 1012.7 |
| 20260502062314 | 13 | 321 | 1.6 | 4.8 | 0.00 | 1.19 | 0.00 | 88 | 1012.7 |
| 20260502061333 | 13 | 313 | 1.6 | 3.2 | 0.00 | 1.19 | 0.00 | 87 | 1013.0 |
| 20260502060327 | 13 | 336 | 1.6 | 4.8 | 0.00 | 1.19 | 0.00 | 87 | 1013.0 |
| 20260502055346 | 13 | 296 | 1.6 | 4.8 | 0.00 | 1.19 | 0.00 | 87 | 1013.2 |
| 20260502054319 | 13 | 288 | 1.6 | 6.4 | 0.00 | 1.19 | 0.00 | 87 | 1013.3 |
| 20260502053316 | 13 | 321 | 1.6 | 6.4 | 0.00 | 1.19 | 0.00 | 87 | 1013.5 |
| 20260502052318 | 13 | 316 | 3.2 | 6.4 | 0.00 | 1.19 | 0.00 | 87 | 1013.4 |
| 20260502051309 | 13 | 335 | 3.2 | 4.8 | 0.00 | 1.19 | 0.00 | 87 | 1013.3 |
| 20260502050330 | 13 | 344 | 1.6 | 3.2 | 0.00 | 1.19 | 0.00 | 87 | 1013.4 |
| 20260502045357 | 13 | 309 | 0.0 | 3.2 | 0.00 | 1.19 | 0.00 | 87 | 1013.6 |
| 20260502044316 | 13 | 327 | 1.6 | 3.2 | 0.00 | 1.19 | 0.00 | 87 | 1013.8 |
| 20260502043335 | 13 | 329 | 1.6 | 3.2 | 0.00 | 1.19 | 0.00 | 87 | 1013.9 |
| 20260502042310 | 13 | 333 | 1.6 | 3.2 | 0.00 | 1.19 | 0.00 | 87 | 1013.8 |
| 20260502041311 | 13 | 331 | 1.6 | 4.8 | 0.00 | 1.19 | 0.00 | 87 | 1013.8 |
| 20260502040349 | 13 | 340 | 0.0 | 4.8 | 0.00 | 1.19 | 0.00 | 87 | 1013.9 |
| 20260502035323 | 13 | 355 | 1.6 | 4.8 | 0.00 | 1.19 | 0.30 | 87 | 1013.8 |
| 20260502034323 | 13 | 342 | 1.6 | 4.8 | 0.00 | 1.19 | 0.30 | 87 | 1014.0 |
| 20260502033322 | 13 | 355 | 3.2 | 6.4 | 0.00 | 1.19 | 0.30 | 87 | 1014.0 |
| 20260502032319 | 13 | 34 | 3.2 | 4.8 | 0.00 | 1.19 | 0.30 | 87 | 1014.0 |
| 20260502031326 | 13 | 11 | 3.2 | 4.8 | 0.00 | 1.19 | 0.30 | 87 | 1014.1 |
| 20260502030321 | 13 | 342 | 1.6 | 6.4 | 0.00 | 1.19 | 0.30 | 87 | 1014.3 |
| 20260502025316 | 13 | 9 | 3.2 | 6.4 | 0.00 | 1.19 | 0.30 | 87 | 1014.3 |
| 20260502024319 | 13 | 313 | 3.2 | 4.8 | 0.00 | 1.19 | 0.30 | 87 | 1014.3 |
| 20260502023315 | 13 | 337 | 1.6 | 6.4 | 0.00 | 1.19 | 0.30 | 86 | 1014.4 |
| 20260502022313 | 13 | 336 | 3.2 | 6.4 | 0.00 | 1.19 | 0.30 | 86 | 1014.6 |
| 20260502021316 | 13 | 5 | 3.2 | 6.4 | 0.00 | 1.19 | 0.30 | 86 | 1014.4 |
| 20260502020312 | 13 | 342 | 3.2 | 4.8 | 0.00 | 1.19 | 0.30 | 86 | 1014.4 |
| 20260502015332 | 13 | 9 | 1.6 | 4.8 | 0.00 | 1.19 | 0.30 | 86 | 1014.4 |
| 20260502014308 | 13 | 341 | 1.6 | 6.4 | 0.00 | 1.19 | 0.30 | 86 | 1014.3 |
| 20260502013309 | 13 | 9 | 3.2 | 6.4 | 0.00 | 1.19 | 0.30 | 85 | 1014.1 |
| 20260502012332 | 13 | 317 | 1.6 | 4.8 | 0.00 | 1.19 | 0.30 | 85 | 1014.2 |
| 20260502011327 | 13 | 325 | 1.6 | 4.8 | 0.00 | 1.19 | 0.30 | 85 | 1014.2 |
| 20260502010330 | 14 | 355 | 1.6 | 3.2 | 0.00 | 1.19 | 0.30 | 84 | 1013.9 |
| 20260502005328 | 14 | 67 | 3.2 | 4.8 | 0.00 | 1.19 | 0.30 | 84 | 1013.8 |
| 20260502004325 | 14 | 355 | 1.6 | 4.8 | 0.00 | 1.19 | 0.30 | 83 | 1013.9 |
| 20260502003326 | 14 | 19 | 0.0 | 4.8 | 0.00 | 1.19 | 0.30 | 83 | 1013.9 |
| 20260502002323 | 15 | 38 | 1.6 | 4.8 | 0.00 | 1.19 | 0.30 | 82 | 1013.7 |
| 20260502001326 | 15 | 9 | 3.2 | 6.4 | 0.00 | 1.19 | 0.30 | 81 | 1013.3 |
| 20260502000324 | 15 | 341 | 3.2 | 6.4 | 0.00 | 1.19 | 0.30 | 80 | 1013.5 |
| 20260501235318 | 15 | 64 | 3.2 | 4.8 | 0.00 | 1.19 | 0.30 | 80 | 1013.5 |
| 20260501234322 | 15 | 28 | 1.6 | 3.2 | 0.00 | 1.19 | 0.30 | 79 | 1013.7 |
| 20260501233319 | 16 | 12 | 1.6 | 3.2 | 0.00 | 1.19 | 0.30 | 77 | 1013.8 |
| 20260501232315 | 16 | 35 | 3.2 | 6.4 | 0.00 | 1.19 | 0.30 | 77 | 1013.7 |
| 20260501231318 | 16 | 19 | 1.6 | 8.0 | 0.00 | 1.19 | 0.30 | 76 | 1013.8 |
| 20260501230314 | 16 | 36 | 3.2 | 6.4 | 0.00 | 1.19 | 0.30 | 75 | 1013.9 |